[[{"header":{"parameterUnit":"m.s-1","parameterCategory":1,"la1":30.2991,"la2":30.254,"lo1":-89.0895,"lo2":-89.0444,"dy":0.0017,"dx":0.0017,"nx":28,"ny":28,"refTime":"2023-10-10T21:00:00:Z","depth":0,"parameterNumber":2,"parameterNumberName":"U-component_of_WINDS"},"data":[0,0,0,0,0,0,0,0,0,0,0,0,0,0,0,0,0,0,0,0,0,0,0,0,0,0,0,0,0,0,0,0,0,0,0,0,0,0,0,0,0,0,0,0,0,0,0,0,0,0,0,0,0,0,0,0,0,0,-2.7209,-2.7209,0,-2.7215,-2.7215,-2.7215,-2.7096,-2.7093,-2.709,-2.7087,-2.7096,-2.7099,-2.7102,0,0,0,0,0,0,0,0,0,0,0,0,0,-2.7099,-2.7101,-2.7209,-2.7209,-2.7209,-2.7215,-2.7215,-2.7215,-2.7097,-2.7093,-2.7089,-2.7085,-2.7095,-2.7099,-2.7103,0,0,0,0,0,0,0,0,0,0,0,0,0,-2.713,-2.7102,-2.7209,-2.7151,-2.7145,-2.7215,-2.7215,-2.7215,-2.7097,-2.7093,-2.7088,-2.7083,-2.7094,-2.7098,-2.7103,-2.723,0,0,-2.7118,-2.712,0,0,0,0,0,0,0,0,-2.7128,-2.7134,-2.7159,-2.7155,-2.7149,-2.715,-2.7179,-2.722,-2.7099,-2.7116,-2.7087,-2.7081,-2.7118,-2.7121,-2.7132,-2.723,-2.723,-2.7118,-2.7121,-2.7123,-2.7125,0,0,0,0,0,0,0,-2.7126,-2.7133,-2.7211,-2.716,-2.7154,-2.7125,-2.7125,-2.7187,-2.7144,-2.7114,-2.7105,-2.7107,-2.7114,-2.7128,-2.7132,-2.7231,-2.7118,-2.7123,-2.7126,-2.7128,-2.7435,-2.744,0,0,0,0,0,0,-2.7132,-2.7132,-2.7211,-2.7211,-2.7127,-2.7131,-2.713,-2.7154,-2.7143,-2.7136,-2.7112,-2.7102,-2.7122,-2.7126,-2.7132,-2.7281,-2.7123,-2.7128,-2.7131,-2.743,-2.7436,-2.7442,0,0,0,0,0,0,-2.713,-2.714,-2.7211,-2.717,-2.7176,-2.7138,-2.7166,-2.7157,-2.7171,-2.7141,-2.7133,-2.7133,-2.7118,-2.7125,-2.7207,-2.728,-2.713,-2.7135,-2.7424,-2.7432,-2.7439,-2.7581,0,0,0,0,0,0,-2.7127,-2.714,-2.7187,-2.7171,-2.7179,-2.7285,-2.7171,-2.7161,-2.7179,-2.7166,-2.7159,-2.7154,-2.7115,-2.72,-2.7211,-2.7284,-2.7138,-2.7417,-2.7427,-2.7437,-2.757,-2.7593,-2.7612,0,0,0,0,0,-2.7124,-2.7227,-2.719,-2.72,-2.7237,-2.729,-2.7294,-2.7247,-2.7185,-2.7233,-2.7214,-2.7154,-2.7269,-2.7209,-2.7221,-2.7296,-2.7412,-2.7425,-2.7436,-2.756,-2.7588,-2.7612,0,0,0,0,0,0,-2.7252,-2.7223,-2.7182,-2.7283,-2.729,-2.7269,-2.7328,-2.7278,-2.7303,-2.729,-2.7231,-2.7231,-2.7323,-2.7317,-2.7251,-2.7419,-2.733,-2.7345,-2.7421,-2.7447,-2.7468,-2.7469,-2.7142,0,0,0,0,0,-2.7292,-2.7336,-2.7309,-2.7401,-2.7406,-2.7367,-2.7388,-2.7351,-2.7356,-2.7358,-2.7345,-2.7354,-2.7392,-2.7418,-2.7452,-2.7567,-2.7566,-2.7625,-2.7646,-2.7664,-2.7679,-2.7742,-2.7769,-2.7481,-2.7481,-2.7481,0,0,-2.7376,-2.7365,-2.7397,-2.7426,-2.7427,-2.7476,-2.737,-2.7426,-2.7462,-2.7367,-2.7444,-2.7435,-2.744,-2.7541,-2.7584,-2.7539,-2.7757,-2.7679,-2.7693,-2.7698,-2.7757,-2.7785,-2.7809,-2.7489,-2.7487,-2.7486,0,0,-2.7553,-2.7548,-2.7626,-2.7629,-2.7631,-2.7604,-2.7623,-2.761,-2.7601,-2.7677,-2.7607,-2.765,-2.7716,-2.7724,-2.7736,-2.7918,-2.7864,-2.793,-2.8043,-2.8106,-2.8129,-2.8149,-2.8217,-2.8241,-2.7944,-2.7944,-2.7944,0,-2.7657,-2.7727,-2.7672,-2.7733,-2.7749,-2.7664,-2.7743,-2.7749,-2.7763,-2.7777,-2.7725,-2.7808,-2.7805,-2.7907,-2.7952,-2.7963,-2.7985,-2.7932,-2.8129,-2.8149,-2.8167,-2.8231,-2.8257,-2.7952,-2.7951,-2.795,-2.795,0,-2.7856,-2.7906,-2.7968,-2.7983,-2.8006,-2.8076,-2.8033,-2.8063,-2.8024,-2.8003,-2.8083,-2.8076,-2.8108,-2.8129,-2.8091,-2.8227,-2.8199,-2.8139,-2.8049,-2.8204,-2.8263,-2.8287,-2.7964,-2.7961,-2.7959,-2.7957,0,0,-2.8117,-2.8101,-2.8125,-2.8132,-2.8128,-2.8166,-2.8233,-2.8263,-2.8292,-2.8303,-2.836,-2.8418,-2.8363,-2.8378,-2.834,-2.8395,-2.8543,-2.8328,-2.8328,-2.8372,-2.8696,-2.8744,-2.8773,-2.8506,-2.851,-2.8514,-2.8696,0,-2.8293,-2.8405,-2.8358,-2.8475,-2.8522,-2.8442,-2.85,-2.8506,-2.8488,-2.8526,-2.8506,-2.8551,-2.8473,-2.8482,-2.8532,-2.8515,-2.8608,-2.85,-2.8561,-2.8564,-2.8566,-2.8803,-2.8853,-2.9026,-2.8719,-2.8723,-2.8726,0,-2.8512,-2.8534,-2.8657,-2.8646,-2.8664,-2.8717,-2.8743,-2.8779,-2.8784,-2.8767,-2.8784,-2.8734,-2.8801,-2.8709,-2.8801,-2.8729,-2.875,-2.8746,-2.8751,-2.8758,-2.8657,-2.882,-2.9079,-2.9107,-2.8761,-2.8758,-2.8756,0,-2.8695,-2.8754,-2.8836,-2.8843,-2.8833,-2.8873,-2.887,-2.887,-2.8892,-2.8914,-2.8928,-2.8957,-2.8975,-2.9,-2.896,-2.8896,-2.906,-2.8963,-2.9051,-2.9052,-2.9092,-2.9091,-2.9362,-2.91,-2.9099,-2.9099,-2.9098,0,-2.8898,-2.8977,-2.8918,-2.8969,-2.9055,-2.9,-2.9088,-2.9077,-2.9078,-2.9126,-2.9057,-2.9105,-2.9048,-2.909,-2.906,-2.9143,-2.915,-2.9141,-2.9132,-2.9149,-2.9151,-2.9165,-2.9154,-2.9106,-2.9104,-2.9103,-2.9102,0,-2.9118,-2.9081,-2.9166,-2.9148,-2.9146,-2.9211,-2.9197,-2.9244,-2.9221,-2.9284,-2.9295,-2.926,-2.9306,-2.9269,-2.9313,-2.9293,-2.9405,-2.9377,-2.9404,-2.9397,-2.9488,-2.9482,-2.9782,-2.982,-2.953,-2.9533,-2.9535,0,-2.9252,-2.9311,-2.93,-2.9328,-2.933,-2.9374,-2.9396,-2.9344,-2.937,-2.9381,-2.9428,-2.9467,-2.9497,-2.9576,-2.9555,-2.959,-2.9565,-2.9668,-2.957,-2.9586,-2.9572,-2.957,-2.9578,-2.9689,-2.9693,-2.9695,-2.9698,0,-2.9495,-2.9474,-2.9508,-2.9537,-2.9565,-2.9585,-2.9599,-2.9626,-2.9573,-2.9606,-2.9652,-2.9675,-2.9721,-2.9764,-2.9791,-2.979,-2.9738,-2.9728,-2.9751,-2.9771,-2.9785,-2.9782,-2.9462,-2.9722,-2.972,-2.9718,-2.9717,-2.9716,-2.9679,-2.9729,-2.9729,-2.977,-2.9775,-2.9791,-2.9835,-2.9818,-2.9855,-2.9889,-2.9855,-2.9913,-2.9917,-2.9949,-2.9954,-2.9999,-2.9957,-2.9989,-2.9998,-3.0008,-3.0023,-2.9775,-3.0004,-3.0003,-3.0002,-3.0002,-3.0001,0,-2.9921,-2.9918,-2.9956,-2.9978,-3.0011,-2.9955,-2.9969,-3.0001,-3.0052,-3.006,-3.009,-3.0145,-3.0186,-3.0169,-3.0205,-3.0244,-3.0221,-3.0256,-3.0255,-3.0256,-3.0056,-3.0035,-3.0275,-3.0274,-3.0274,-3.0274,-3.0274,-3.0274,-3.0052,-3.0134,-3.0114,-3.0199,-3.0194,-3.0249,-3.0262,-3.0277,-3.0283,-3.0348,-3.0381,-3.0368,-3.0367,-3.0403,-3.0439,-3.0432,-3.0451,-3.0496,-3.0482,-3.0296,-3.027,-3.0244,-3.0224,-3.0499,-3.0499,-3.0678,-3.0679,-3.0681]},{"header":{"parameterUnit":"m.s-1","parameterCategory":1,"la1":30.2991,"la2":30.254,"lo1":-89.0895,"lo2":-89.0444,"dy":0.0017,"dx":0.0017,"nx":28,"ny":28,"refTime":"2023-10-10T21:00:00:Z","depth":0,"parameterNumber":3,"parameterNumberName":"V-component_of_WINDS"},"data":[0,0,0,0,0,0,0,0,0,0,0,0,0,0,0,0,0,0,0,0,0,0,0,0,0,0,0,0,0,0,0,0,0,0,0,0,0,0,0,0,0,0,0,0,0,0,0,0,0,0,0,0,0,0,0,0,0,0,-5.0702,-5.0701,0,-5.0616,-5.0615,-5.0614,-5.048,-5.0478,-5.0475,-5.0473,-5.0385,-5.0385,-5.0385,0,0,0,0,0,0,0,0,0,0,0,0,0,-5.0752,-5.0752,-5.0702,-5.0701,-5.07,-5.0616,-5.0615,-5.0614,-5.0481,-5.0478,-5.0475,-5.0472,-5.0385,-5.0385,-5.0385,0,0,0,0,0,0,0,0,0,0,0,0,0,-5.0705,-5.0752,-5.0703,-5.0624,-5.0616,-5.0617,-5.0615,-5.0614,-5.0481,-5.0478,-5.0474,-5.0471,-5.0385,-5.0385,-5.0385,-5.0456,0,0,-5.0384,-5.0384,0,0,0,0,0,0,0,0,-5.0707,-5.0703,-5.0636,-5.0629,-5.062,-5.0555,-5.06,-5.0561,-5.0482,-5.0532,-5.0473,-5.0469,-5.0445,-5.0439,-5.0431,-5.0452,-5.0448,-5.0384,-5.0384,-5.0384,-5.0384,0,0,0,0,0,0,0,-5.0711,-5.0706,-5.0668,-5.0636,-5.0626,-5.0593,-5.0582,-5.0592,-5.051,-5.0528,-5.0518,-5.0509,-5.044,-5.0432,-5.0428,-5.0447,-5.0384,-5.0384,-5.0384,-5.0384,-5.052,-5.0523,0,0,0,0,0,0,-5.0726,-5.0709,-5.0671,-5.0666,-5.0656,-5.0595,-5.0583,-5.058,-5.0509,-5.0495,-5.0513,-5.0503,-5.0434,-5.0428,-5.0424,-5.0501,-5.0384,-5.0384,-5.0384,-5.0516,-5.0521,-5.0525,0,0,0,0,0,0,-5.0727,-5.0724,-5.0674,-5.0685,-5.0676,-5.0598,-5.0595,-5.058,-5.0572,-5.0498,-5.0482,-5.0519,-5.0431,-5.0425,-5.0449,-5.0496,-5.0384,-5.0384,-5.0512,-5.0518,-5.0523,-5.0657,0,0,0,0,0,0,-5.0729,-5.0725,-5.0751,-5.0686,-5.0676,-5.0701,-5.0598,-5.0581,-5.0572,-5.0559,-5.05,-5.0487,-5.0427,-5.045,-5.0449,-5.0494,-5.0384,-5.0507,-5.0514,-5.0521,-5.0648,-5.0667,-5.0683,0,0,0,0,0,-5.0732,-5.0793,-5.0753,-5.0749,-5.0707,-5.0704,-5.0698,-5.0628,-5.0576,-5.0602,-5.0554,-5.0489,-5.0492,-5.0453,-5.0451,-5.0497,-5.0504,-5.0512,-5.052,-5.064,-5.0663,-5.0682,0,0,0,0,0,0,-5.0866,-5.0783,-5.0738,-5.078,-5.075,-5.0681,-5.0711,-5.0654,-5.0638,-5.0627,-5.054,-5.0528,-5.0563,-5.0533,-5.0491,-5.0562,-5.0488,-5.0496,-5.058,-5.0601,-5.0618,-5.0623,-5.0384,0,0,0,0,0,-5.09,-5.0904,-5.0832,-5.0876,-5.0863,-5.0791,-5.0786,-5.0735,-5.07,-5.0687,-5.0641,-5.0609,-5.0603,-5.06,-5.0591,-5.0644,-5.0628,-5.0674,-5.0692,-5.0706,-5.0714,-5.0738,-5.0757,-5.0552,-5.0552,-5.0552,0,0,-5.0971,-5.0927,-5.0934,-5.0902,-5.0872,-5.0878,-5.078,-5.0791,-5.0794,-5.0688,-5.0707,-5.0673,-5.0632,-5.0671,-5.0686,-5.0647,-5.0767,-5.0717,-5.0729,-5.0728,-5.0748,-5.0768,-5.0785,-5.0558,-5.0557,-5.0556,0,0,-5.1103,-5.1071,-5.1103,-5.1076,-5.1032,-5.0983,-5.0991,-5.0931,-5.0904,-5.0922,-5.0842,-5.0845,-5.0836,-5.081,-5.0796,-5.0918,-5.0857,-5.0918,-5.1007,-5.1031,-5.1047,-5.1061,-5.1103,-5.1119,-5.0926,-5.0926,-5.0926,0,-5.1197,-5.1202,-5.1127,-5.1142,-5.113,-5.1034,-5.1066,-5.1043,-5.0999,-5.0993,-5.095,-5.0936,-5.0902,-5.0932,-5.0962,-5.0955,-5.096,-5.0923,-5.1051,-5.1064,-5.1076,-5.1115,-5.1131,-5.0934,-5.0933,-5.0932,-5.0931,0,-5.1319,-5.1324,-5.1356,-5.1315,-5.1306,-5.133,-5.1258,-5.1258,-5.1208,-5.1164,-5.1183,-5.1139,-5.1118,-5.1122,-5.1073,-5.1145,-5.1122,-5.1067,-5.099,-5.1104,-5.1139,-5.1153,-5.0944,-5.0942,-5.0939,-5.0938,0,0,-5.1531,-5.1449,-5.1461,-5.1441,-5.1386,-5.1389,-5.1408,-5.1387,-5.1389,-5.1362,-5.1375,-5.137,-5.1318,-5.1302,-5.1249,-5.1271,-5.1369,-5.1213,-5.121,-5.1241,-5.1443,-5.1483,-5.1502,-5.1329,-5.1331,-5.1333,-5.1445,0,-5.165,-5.1678,-5.1611,-5.1655,-5.1658,-5.1568,-5.1585,-5.1553,-5.1512,-5.1509,-5.1464,-5.1461,-5.1394,-5.1383,-5.1401,-5.1353,-5.1408,-5.1345,-5.1338,-5.1339,-5.1349,-5.152,-5.1563,-5.1671,-5.1459,-5.1461,-5.1463,0,-5.1793,-5.1773,-5.1817,-5.1759,-5.1758,-5.1774,-5.1749,-5.1747,-5.1709,-5.1678,-5.166,-5.1599,-5.1613,-5.1542,-5.1559,-5.1518,-5.1511,-5.1488,-5.149,-5.1485,-5.1406,-5.1517,-5.1703,-5.1719,-5.1484,-5.1482,-5.1481,0,-5.194,-5.1925,-5.1949,-5.1935,-5.1868,-5.1882,-5.1854,-5.1813,-5.1804,-5.1783,-5.1776,-5.1757,-5.1746,-5.1732,-5.1667,-5.1622,-5.1692,-5.1615,-5.1665,-5.1667,-5.1682,-5.1681,-5.1867,-5.1682,-5.1682,-5.1682,-5.1681,0,-5.2079,-5.2109,-5.2014,-5.2029,-5.206,-5.1983,-5.2016,-5.198,-5.1944,-5.1949,-5.1871,-5.1878,-5.1792,-5.179,-5.1739,-5.176,-5.1757,-5.1731,-5.1716,-5.1736,-5.1739,-5.1729,-5.1719,-5.1686,-5.1685,-5.1684,-5.1684,0,-5.2248,-5.2186,-5.2206,-5.2142,-5.2126,-5.2152,-5.2096,-5.2107,-5.2062,-5.207,-5.2067,-5.1996,-5.1989,-5.1923,-5.1901,-5.1867,-5.1907,-5.1879,-5.1919,-5.1909,-5.1962,-5.1957,-5.2146,-5.2166,-5.1971,-5.1973,-5.1975,0,-5.234,-5.2361,-5.2299,-5.2297,-5.2273,-5.2272,-5.2263,-5.2188,-5.2182,-5.214,-5.2155,-5.2142,-5.2127,-5.2119,-5.2065,-5.2048,-5.2018,-5.2085,-5.2014,-5.2033,-5.2016,-5.2014,-5.2015,-5.21,-5.2102,-5.2104,-5.2106,0,-5.2508,-5.2476,-5.2466,-5.2446,-5.2437,-5.2417,-5.2392,-5.2395,-5.2313,-5.231,-5.2301,-5.229,-5.2267,-5.2254,-5.2227,-5.2198,-5.2138,-5.2129,-5.2139,-5.2158,-5.218,-5.2166,-5.1958,-5.2124,-5.2122,-5.2121,-5.212,-5.2119,-5.2639,-5.2653,-5.2612,-5.2603,-5.2576,-5.2555,-5.2561,-5.2517,-5.2509,-5.2485,-5.2442,-5.2439,-5.24,-5.2357,-5.2334,-5.233,-5.2295,-5.231,-5.2313,-5.2318,-5.2327,-5.2183,-5.2325,-5.2325,-5.2324,-5.2323,-5.2323,0,-5.2801,-5.277,-5.2763,-5.2731,-5.2724,-5.2669,-5.2639,-5.2636,-5.2635,-5.2604,-5.259,-5.258,-5.2567,-5.2512,-5.2493,-5.2501,-5.2472,-5.2498,-5.2495,-5.2489,-5.2361,-5.2353,-5.2521,-5.2521,-5.2521,-5.2521,-5.2521,-5.2521,-5.2885,-5.2905,-5.2869,-5.2875,-5.2843,-5.284,-5.2827,-5.2807,-5.2781,-5.2773,-5.2762,-5.2727,-5.2685,-5.2662,-5.2648,-5.2632,-5.2627,-5.2662,-5.2636,-5.2518,-5.2498,-5.248,-5.2472,-5.2662,-5.2662,-5.2764,-5.2765,-5.2766]}]]